• In Romania
  • List of Countries
  • For 7 days
  • Water Temperature
  • Satellite Maps
  • Weather Map
  • Weather Widgets
  • user-avatar
    Login

    Hourly Weather Tanga

    Today, 21 October, Sunday

    Time Temperature Precipitation Wind Pressure Humidity
    00:00 +26°C° 0 mm 2 mps 760 mmHg 93%
    01:00 +26°C° 0 mm 2 mps 760 mmHg 93%
    02:00 +26°C° 0 mm 2 mps 759 mmHg 93%
    03:00 +26°C° 0 mm 2 mps 759 mmHg 94%
    04:00 +26°C° 0 mm 2 mps 759 mmHg 94%
    05:00 +25°C° 0 mm 2 mps 760 mmHg 94%
    06:00 +25°C° 0 mm 2 mps 760 mmHg 94%
    07:00 +27°C° 0.1 mm 2 mps 760 mmHg 85%
    08:00 +29°C° 0.1 mm 2 mps 761 mmHg 76%
    09:00 +31°C° 0 mm 3 mps 761 mmHg 63%
    10:00 +33°C° 0 mm 3 mps 761 mmHg 59%
    11:00 +34°C° 0 mm 4 mps 760 mmHg 55%
    12:00 +35°C° 0 mm 4 mps 760 mmHg 51%
    13:00 +35°C° 0 mm 5 mps 760 mmHg 52%
    14:00 +35°C° 0 mm 5 mps 759 mmHg 53%
    15:00 +35°C° 0 mm 5 mps 758 mmHg 54%
    16:00 +33°C° 0 mm 5 mps 759 mmHg 59%
    17:00 +32°C° 0 mm 5 mps 759 mmHg 65%
    18:00 +30°C° 0 mm 5 mps 759 mmHg 71%
    19:00 +28°C° 0 mm 5 mps 760 mmHg 77%
    20:00 +27°C° 0 mm 4 mps 760 mmHg 83%
    21:00 +26°C° 0 mm 4 mps 761 mmHg 89%
    22:00 +26°C° 0 mm 4 mps 761 mmHg 89%
    23:00 +26°C° 0 mm 4 mps 761 mmHg 90%

    Tomorrow, 22 October, Monday

    Time Temperature Precipitation Wind Pressure Humidity
    00:00 +26°C° 0 mm 4 mps 762 mmHg 91%
    01:00 +26°C° 0.1 mm 4 mps 761 mmHg 90%
    02:00 +26°C° 0.1 mm 4 mps 761 mmHg 90%
    03:00 +25°C° 0.1 mm 4 mps 761 mmHg 90%
    04:00 +25°C° 0.2 mm 4 mps 761 mmHg 90%
    05:00 +25°C° 0.2 mm 4 mps 761 mmHg 91%
    06:00 +25°C° 0.2 mm 4 mps 761 mmHg 91%
    07:00 +26°C° 0.4 mm 4 mps 762 mmHg 84%
    08:00 +28°C° 0.4 mm 4 mps 762 mmHg 76%
    09:00 +30°C° 0.4 mm 5 mps 762 mmHg 69%
    10:00 +30°C° 0.5 mm 5 mps 762 mmHg 65%
    11:00 +32°C° 0.5 mm 6 mps 761 mmHg 61%
    12:00 +33°C° 0.5 mm 6 mps 761 mmHg 58%
    13:00 +33°C° 0.5 mm 7 mps 761 mmHg 59%
    14:00 +33°C° 0.5 mm 7 mps 760 mmHg 61%
    15:00 +32°C° 0.5 mm 7 mps 759 mmHg 63%
    16:00 +30°C° 0.6 mm 7 mps 759 mmHg 68%
    17:00 +29°C° 0.6 mm 7 mps 760 mmHg 74%
    18:00 +28°C° 0.6 mm 7 mps 760 mmHg 80%
    19:00 +27°C° 0.7 mm 6 mps 760 mmHg 83%
    20:00 +27°C° 0.7 mm 6 mps 761 mmHg 85%
    21:00 +26°C° 0.7 mm 6 mps 762 mmHg 87%
    22:00 +26°C° 0.7 mm 6 mps 762 mmHg 88%
    23:00 +26°C° 0.7 mm 6 mps 762 mmHg 89%

    Day after tomorrow, 23 October, Tuesday

    Time Temperature Precipitation Wind Pressure Humidity
    00:00 +26°C° 0.7 mm 6 mps 762 mmHg 90%
    01:00 +26°C° 1 mm 6 mps 762 mmHg 90%
    02:00 +24°C° 1 mm 6 mps 761 mmHg 91%
    03:00 +24°C° 1 mm 6 mps 761 mmHg 91%
    04:00 +24°C° 1.1 mm 7 mps 761 mmHg 90%
    05:00 +24°C° 1.1 mm 7 mps 761 mmHg 89%
    06:00 +24°C° 1.1 mm 7 mps 761 mmHg 89%
    07:00 +26°C° 0.9 mm 8 mps 762 mmHg 86%
    08:00 +26°C° 0.9 mm 8 mps 762 mmHg 83%
    09:00 +27°C° 0.9 mm 9 mps 763 mmHg 80%
    10:00 +28°C° 0.7 mm 9 mps 763 mmHg 76%
    11:00 +29°C° 0.7 mm 8 mps 762 mmHg 72%
    12:00 +31°C° 0.7 mm 8 mps 762 mmHg 69%
    13:00 +31°C° 0.1 mm 8 mps 761 mmHg 63%
    14:00 +32°C° 0.1 mm 8 mps 760 mmHg 58%
    15:00 +33°C° 0.1 mm 8 mps 760 mmHg 52%
    16:00 +31°C° 0 mm 8 mps 760 mmHg 58%
    17:00 +29°C° 0 mm 7 mps 760 mmHg 64%
    18:00 +28°C° 0 mm 7 mps 760 mmHg 70%
    19:00 +27°C° 0 mm 6 mps 761 mmHg 74%
    20:00 +27°C° 0 mm 6 mps 761 mmHg 78%
    21:00 +26°C° 0 mm 6 mps 762 mmHg 82%
    22:00 +26°C° 0 mm 5 mps 762 mmHg 82%
    23:00 +26°C° 0 mm 5 mps 762 mmHg 82%

    24 October, Wednesday

    Time Temperature Precipitation Wind Pressure Humidity
    00:00 +26°C° 0 mm 5 mps 762 mmHg 82%
    01:00 +26°C° 0.1 mm 5 mps 761 mmHg 83%
    02:00 +26°C° 0.1 mm 5 mps 761 mmHg 84%
    03:00 +26°C° 0.1 mm 5 mps 760 mmHg 85%
    04:00 +25°C° 0.3 mm 5 mps 761 mmHg 86%
    05:00 +25°C° 0.3 mm 5 mps 761 mmHg 87%
    06:00 +25°C° 0.3 mm 5 mps 761 mmHg 87%
    07:00 +26°C° 0.3 mm 5 mps 761 mmHg 81%
    08:00 +28°C° 0.3 mm 6 mps 762 mmHg 75%
    09:00 +29°C° 0.3 mm 6 mps 762 mmHg 69%
    10:00 +30°C° 0.4 mm 6 mps 762 mmHg 63%
    11:00 +33°C° 0.4 mm 7 mps 761 mmHg 58%
    12:00 +34°C° 0.4 mm 7 mps 761 mmHg 52%
    13:00 +32°C° 2.6 mm 7 mps 760 mmHg 64%
    14:00 +28°C° 2.6 mm 6 mps 759 mmHg 76%
    15:00 +26°C° 2.6 mm 6 mps 758 mmHg 88%
    16:00 +26°C° 3.3 mm 6 mps 759 mmHg 90%
    17:00 +26°C° 3.3 mm 6 mps 759 mmHg 91%
    18:00 +26°C° 3.3 mm 6 mps 759 mmHg 93%
    19:00 +26°C° 2.1 mm 6 mps 760 mmHg 93%
    20:00 +26°C° 2.1 mm 6 mps 761 mmHg 92%
    21:00 +26°C° 2.1 mm 6 mps 761 mmHg 92%
    22:00 +26°C° 2.1 mm 5 mps 761 mmHg 92%
    23:00 +26°C° 2.1 mm 5 mps 761 mmHg 93%

    25 October, Thursday

    Time Temperature Precipitation Wind Pressure Humidity
    00:00 +26°C° 2.1 mm 5 mps 761 mmHg 94%
    01:00 +26°C° 2.3 mm 4 mps 760 mmHg 94%
    02:00 +26°C° 2.3 mm 4 mps 759 mmHg 94%
    03:00 +26°C° 2.3 mm 4 mps 759 mmHg 94%
    04:00 +26°C° 2.9 mm 4 mps 759 mmHg 94%
    05:00 +26°C° 2.9 mm 4 mps 759 mmHg 93%
    06:00 +26°C° 2.9 mm 4 mps 760 mmHg 93%
    07:00 +27°C° 2.9 mm 4 mps 760 mmHg 91%
    08:00 +27°C° 2.9 mm 4 mps 761 mmHg 89%
    09:00 +28°C° 2.9 mm 5 mps 761 mmHg 88%
    10:00 +28°C° 2.6 mm 4 mps 761 mmHg 86%
    11:00 +29°C° 2.6 mm 4 mps 760 mmHg 85%
    12:00 +29°C° 2.6 mm 4 mps 760 mmHg 83%
    13:00 +29°C° 2.7 mm 4 mps 759 mmHg 83%
    14:00 +29°C° 2.7 mm 4 mps 759 mmHg 82%
    15:00 +29°C° 2.7 mm 4 mps 758 mmHg 82%
    16:00 +29°C° 3.3 mm 4 mps 758 mmHg 85%
    17:00 +28°C° 3.3 mm 4 mps 759 mmHg 88%
    18:00 +27°C° 3.3 mm 4 mps 759 mmHg 91%
    19:00 +27°C° 3.2 mm 4 mps 759 mmHg 92%
    20:00 +27°C° 3.2 mm 4 mps 760 mmHg 92%
    21:00 +27°C° 3.2 mm 4 mps 761 mmHg 92%
    22:00 +27°C° 3.7 mm 4 mps 760 mmHg 92%
    23:00 +27°C° 3.7 mm 4 mps 760 mmHg 92%

    26 October, Friday

    Time Temperature Precipitation Wind Pressure Humidity
    00:00 +27°C° 3.7 mm 4 mps 760 mmHg 92%
    01:00 +26°C° 3.2 mm 4 mps 760 mmHg 92%
    02:00 +26°C° 3.2 mm 4 mps 759 mmHg 92%
    03:00 +26°C° 3.2 mm 4 mps 759 mmHg 92%
    04:00 +26°C° 3.3 mm 4 mps 759 mmHg 92%
    05:00 +26°C° 3.3 mm 4 mps 760 mmHg 93%
    06:00 +26°C° 3.3 mm 4 mps 760 mmHg 93%
    07:00 +26°C° 3.7 mm 4 mps 761 mmHg 93%
    08:00 +26°C° 3.7 mm 4 mps 761 mmHg 92%
    09:00 +26°C° 3.7 mm 4 mps 761 mmHg 92%
    10:00 +27°C° 2.9 mm 5 mps 761 mmHg 90%
    11:00 +28°C° 2.9 mm 5 mps 760 mmHg 88%
    12:00 +29°C° 2.9 mm 5 mps 760 mmHg 85%
    13:00 +29°C° 2.3 mm 5 mps 759 mmHg 85%
    14:00 +29°C° 2.3 mm 5 mps 759 mmHg 85%
    15:00 +29°C° 2.3 mm 5 mps 758 mmHg 86%
    16:00 +28°C° 1.2 mm 4 mps 759 mmHg 87%
    17:00 +28°C° 1.2 mm 4 mps 759 mmHg 89%
    18:00 +27°C° 1.2 mm 4 mps 759 mmHg 91%
    19:00 +27°C° 1.1 mm 4 mps 760 mmHg 91%
    20:00 +26°C° 1.1 mm 4 mps 760 mmHg 91%
    21:00 +26°C° 1.1 mm 3 mps 761 mmHg 92%
    22:00 +26°C° 1.2 mm 3 mps 761 mmHg 92%
    23:00 +26°C° 1.2 mm 3 mps 761 mmHg 92%
    Show more